sat.trackr.live / text

‹ back to catalog

STARLINK-30955

NORAD 58417 · 2023-180R

PAYLOAD ACTIVE UNKNOWN

§ Identity

Operator
Country
US
Launch date
2023-11-22
Launch site
AFETR
Launch vehicle
Mass (kg)
RCS (m²)

Purposes: comms

External: N2YO · Heavens-Above · Gunter

§ Orbital elements

Epoch: 2026-09-19T17:01:56.733024Z

Period
94.27 min
Inclination
43.0029°
Eccentricity
0.0001080
Mean motion
15.27571164 rev/d
Perigee alt
482.3 km
Apogee alt
483.8 km
Semi-major
6,861.2 km
B*
-1.9706e-5
RAAN
36.4006°
Arg perigee
252.7821°
Mean anomaly
107.2913°
Rev number
15,730

§ Raw data

STARLINK-309551 58417U 23180R   26262.70968441 -.00000804  00000+0 -19706-4 0  99962 58417  43.0029  36.4006 0001080 252.7821 107.2913 15.27571164157308

JSON: /api/v1/satellites/58417 · /tle

For live sub-satellite position, see the globe view (requires WebGL).

§ Visibility from observer

Set your observer location to see the next 7 days of passes ≥ 10°. The values pass through the URL so the page stays shareable.

No JS? Fill the form by hand. The geolocation button needs JavaScript.